^^
Datos históricos de la estación: Murcia-Puente Tocinos
 
Diario Informe para Agosto 02, 2021 Unidades:  Métrico    Ingés   Ambas
Diario Semanal Mensual Anual
  Actual: Máxima: Mínima: Promedio:
Temperatura: 24.1 °C 24.3 °C 24.1 °C 24.2 °C
Punto de rocio: 20.2 °C 20.6 °C 20.2 °C 20.5 °C
Humedad: 79% 80% 79% 80%
Velocidad viento: 7.9km/h 9.5km/h 6.9km/h 8.2km/h
Racha viento: 14.8km/h 17.7km/h - -
VientoNNE - - NE
Presión: 1013.1 hPa 1013.3 hPa 1013.1 hPa -
Precipitación: 0.0 mm      
 
 
Tabla de datos para Agosto 02, 2021
Hora Temperatura Punto de rocio Presión Viento Velocidad viento Racha viento Humedad Intensidad lluvia(por hora) Nubes
00:04 24.3 °C 20.5 °C 1013.3 hPa NNE 9.5 km/h 14.8 km/h 79% 0.0 mm
00:09 24.3 °C 20.4 °C 1013.3 hPa NE 8.8 km/h 14.5 km/h 79% 0.0 mm
00:14 24.3 °C 20.5 °C 1013.2 hPa NNE 8.4 km/h 17.7 km/h 79.3% 0.0 mm
00:19 24.3 °C 20.6 °C 1013.2 hPa NE 8.6 km/h 14.8 km/h 80% 0.0 mm
00:24 24.3 °C 20.6 °C 1013.2 hPa NE 8.7 km/h 11.9 km/h 80% 0.0 mm
00:29 24.3 °C 20.6 °C 1013.2 hPa NE 7.6 km/h 11.3 km/h 80% 0.0 mm
00:34 24.3 °C 20.6 °C 1013.2 hPa NE 6.9 km/h 11.9 km/h 80% 0.0 mm
00:39 24.3 °C 20.6 °C 1013.2 hPa NE 7.4 km/h 13 km/h 80% 0.0 mm
00:44 24.3 °C 20.6 °C 1013.2 hPa NE 7.6 km/h 13.7 km/h 80% 0.0 mm
00:49 24.3 °C 20.6 °C 1013.2 hPa NE 7.6 km/h 14.5 km/h 80% 0.0 mm
00:54 24.3 °C 20.6 °C 1013.2 hPa NE 7.6 km/h 16.7 km/h 80% 0.0 mm
00:59 24.2 °C 20.6 °C 1013.2 hPa NNE 8.3 km/h 16.7 km/h 80% 0.0 mm
01:04 24.2 °C 20.6 °C 1013.2 hPa NE 8.7 km/h 16.1 km/h 80% 0.0 mm
01:09 24.2 °C 20.6 °C 1013.3 hPa NNE 9.2 km/h 16.7 km/h 80% 0.0 mm
01:14 24.2 °C 20.6 °C 1013.3 hPa NE 9.5 km/h 16.1 km/h 80% 0.0 mm
01:19 24.1 °C 20.5 °C 1013.3 hPa NE 8.2 km/h 12.9 km/h 80% 0.0 mm
01:24 24.1 °C 20.3 °C 1013.3 hPa NNE 7.6 km/h 15.6 km/h 79.2% 0.0 mm
01:29 24.1 °C 20.2 °C 1013.1 hPa NE 7.6 km/h 16.1 km/h 79% 0.0 mm
01:34 24.1 °C 20.2 °C 1013.1 hPa NNE 7.6 km/h 14.8 km/h 79% 0.0 mm
01:39 24.1 °C 20.2 °C 1013.1 hPa NNE 8.1 km/h 14.5 km/h 79% 0.0 mm
01:44 24.1 °C 20.2 °C 1013.1 hPa NNE 8.4 km/h 14.5 km/h 79% 0.0 mm
01:49 24.1 °C 20.2 °C 1013.1 hPa NNE 7.9 km/h 14.8 km/h 79% 0.0 mm
Murcia-Puente Tocinos, España
Compliments of Weather Underground - 1.25 mb

La estación de MeteoMurcia.com, publica sus datos en los siguientes proyectos:

Weather Underground PWS IMURCIAP2 Meteoclimatic www.awekas.at

W3Counter
Web Analytics